Moose, Wyoming, United States (83012)
Lat: 43.66N, Lon: 110.72W
Wx Zone: WYZ013
Local Info
Past Weather Observations for Monday, April 21, 2014

NOTE: This archive is for the closest National Weather Service station to Moose. Information may differ from the station used for current weather conditions.

Time Weather Temperature Dewpoint Humidity Pressure Winds Precip Visibility
23:55
Fair
28°F / -2°C 27°F / -3°C 93% 30.27 in
(1025 mb)
N 8.1 mph
(N 13 kph)
-
23:35
Fair
28°F / -2°C 27°F / -3°C 93% 30.27 in
(1025 mb)
NNW 8.1 mph
(NNW 13 kph)
-
23:15
Fair
28°F / -2°C 25°F / -4°C 86% 30.27 in
(1025 mb)
NNW 5.8 mph
(NNW 9 kph)
-
22:55
Fair
30°F / -1°C 28°F / -2°C 93% 30.27 in
(1025 mb)
NNE 3.5 mph
(NNE 6 kph)
-
22:35
Fair
30°F / -1°C 27°F / -3°C 86% 30.27 in
(1025 mb)
N 9.2 mph
(N 15 kph)
-
22:15
Fair
30°F / -1°C 27°F / -3°C 86% 30.27 in
(1025 mb)
NNW 6.9 mph
(NNW 11 kph)
-
21:55
Clear
34°F / 1°C 28°F / -2°C 81% 30.27 in
(1025 mb)
N 4.6 mph
(N 7 kph)
-
21:35
Clear
34°F / 1°C 28°F / -2°C 81% 30.24 in
(1024 mb)
Calm -
21:15
Clear
36°F / 2°C 28°F / -2°C 75% 30.24 in
(1024 mb)
Calm -
20:55
Clear
37°F / 3°C 27°F / -3°C 65% 30.24 in
(1024 mb)
N 4.6 mph
(N 7 kph)
- 10SM
20:35
Clear
41°F / 5°C 27°F / -3°C 57% 30.24 in
(1024 mb)
Calm - 10SM
20:15
Clear
41°F / 5°C 25°F / -4°C 53% 30.21 in
(1023 mb)
Calm - 10SM
19:55
Clear
43°F / 6°C 25°F / -4°C 49% 30.21 in
(1023 mb)
NNW 3.5 mph
(NNW 6 kph)
- 10SM
18:51
Clear
50°F / 10°C 19°F / -7°C 30% N/A SW 4.6 mph
(SW 7 kph)
- 10SM
18:04
Clear
54°F / 12°C 18°F / -8°C 24% 30.18 in
(1022 mb)
SW 8.1 mph
(SW 13 kph)
- 10SM
16:57
Clear
55°F / 13°C 19°F / -7°C 24% 30.18 in
(1022 mb)
W 11.5 mph
(W 19 kph)
- 10SM
15:51
Clear
55°F / 13°C 21°F / -6°C 26% 30.18 in
(1022 mb)
SSW 10.4 mph
(SSW 17 kph)
- 10SM
14:51
Clear
55°F / 13°C 21°F / -6°C 26% 30.18 in
(1022 mb)
SSW 8.1 mph
(SSW 13 kph)
- 10SM
13:51
Clear
55°F / 13°C 19°F / -7°C 24% 30.18 in
(1022 mb)
SW 12.7 mph
(SW 20 kph)
- 10SM
12:52
Clear
54°F / 12°C 21°F / -6°C 28% 30.18 in
(1022 mb)
SSW 8.1 mph
(SSW 13 kph)
- 10SM
11:52
Clear
54°F / 12°C 21°F / -6°C 28% 30.18 in
(1022 mb)
SSW 8.1 mph
(SSW 13 kph)
- 10SM
10:53
Clear
54°F / 12°C 19°F / -7°C 26% 30.18 in
(1022 mb)
SSW 15 mph
(SSW 24 kph)
- 10SM
09:51
Clear
52°F / 11°C 19°F / -7°C 28% 30.15 in
(1021 mb)
SSW 10.4 mph
(SSW 17 kph)
- 10SM
08:51
Clear
45°F / 7°C 32°F / 0°C 61% 30.15 in
(1021 mb)
N 9.2 mph
(N 15 kph)
- 10SM
07:55
Partly Cloudy
39°F / 4°C 30°F / -1°C 70% 30.12 in
(1020 mb)
Calm - 10SM
06:55
Partly Cloudy
39°F / 4°C 30°F / -1°C 70% 30.12 in
(1020 mb)
Calm - 10SM
05:51
Partly Cloudy
28°F / -2°C 27°F / -3°C 93% 30.09 in
(1019 mb)
N 10.4 mph
(N 17 kph)
- 10SM
05:35
Fair
32°F / 0°C 28°F / -2°C 87% 30.06 in
(1018 mb)
SW 4.6 mph
(SW 7 kph)
-
05:15
Fair
28°F / -2°C 27°F / -3°C 93% 30.06 in
(1018 mb)
NNE 3.5 mph
(NNE 6 kph)
-
04:55
Fair
28°F / -2°C 27°F / -3°C 93% 30.06 in
(1018 mb)
Calm -
04:35
Fair
28°F / -2°C 27°F / -3°C 93% 30.06 in
(1018 mb)
NNE 3.5 mph
(NNE 6 kph)
-
04:15
Fair
28°F / -2°C 27°F / -3°C 93% 30.06 in
(1018 mb)
N 6.9 mph
(N 11 kph)
-
03:55
Fair
32°F / 0°C 28°F / -2°C 87% 30.06 in
(1018 mb)
ENE 5.8 mph
(ENE 9 kph)
-
03:35
Fair
32°F / 0°C 28°F / -2°C 87% 30.06 in
(1018 mb)
E 4.6 mph
(E 7 kph)
-
03:15
Fair
30°F / -1°C 28°F / -2°C 93% 30.06 in
(1018 mb)
NE 3.5 mph
(NE 6 kph)
-
02:55
Fair
32°F / 0°C 28°F / -2°C 87% 30.06 in
(1018 mb)
N 5.8 mph
(N 9 kph)
-
02:35
Clear
34°F / 1°C 28°F / -2°C 81% 30.06 in
(1018 mb)
Calm -
02:15
Partly Cloudy
36°F / 2°C 28°F / -2°C 75% 30.06 in
(1018 mb)
ESE 3.5 mph
(ESE 6 kph)
-
01:55
Partly Cloudy
36°F / 2°C 28°F / -2°C 75% 30.06 in
(1018 mb)
Calm -
01:35
Partly Cloudy
37°F / 3°C 27°F / -3°C 65% 30.06 in
(1018 mb)
SE 3.5 mph
(SE 6 kph)
-
01:15
Clear
36°F / 2°C 27°F / -3°C 70% 30.06 in
(1018 mb)
ESE 4.6 mph
(ESE 7 kph)
-
00:55
Clear
37°F / 3°C 27°F / -3°C 65% 30.06 in
(1018 mb)
E 3.5 mph
(E 6 kph)
-
00:35
Clear
37°F / 3°C 27°F / -3°C 65% 30.06 in
(1018 mb)
Calm -
00:15
Clear
37°F / 3°C 27°F / -3°C 65% 30.06 in
(1018 mb)
Calm -
Time Weather Temperature Dewpoint Humidity Pressure Winds Precip Visibility


Weather for websites

WeatherForYou.com, LLC is not responsible for any damages or problems caused by this service. Current weather conditions are obtained from the closest station including government and personal stations which may have varying degrees of accuracy. Weather forecasts are derived from the NOAA NDFD. Like all things, this site belongs to Jesus Christ... He just trusts me to maintain it. If you have any questions or comments email webmaster@weatherforyou.com

Copyright © 2014, WeatherForYou.com LLC. All rights reserved.